Location: Freistadt
(48.5112°N, 14.5013°E)
Time: 04:03:21
(UTC+01:00)

Envisat - Visible Passes

Search period start: 09 December 2022 00:00
Search period end: 19 December 2022 00:00
Orbit: 763 x 765 km, 98.2° (Epoch: 08 December)

Date Brightness Start Highest point End Pass type
(mag) Time Alt. Az. Time Alt. Az. Time Alt. Az.
09 Dec 4.7 04:56:44 10° N 04:58:16 20° N 04:58:16 20° N visible
10 Dec 5.2 04:19:37 10° NNE 04:20:43 17° NNE 04:20:43 17° NNE visible
10 Dec 4.8 05:59:47 10° NNW 06:00:53 14° NNW 06:00:53 14° NNW visible
11 Dec 5.7 03:42:52 10° NNE 03:43:10 11° NNE 03:43:10 11° NNE visible
11 Dec 4.8 05:22:01 10° N 05:23:20 17° N 05:23:20 17° N visible
11 Dec 5.8 16:42:11 10° SW 16:45:27 17° W 16:48:43 10° NW visible
12 Dec 5.0 04:44:42 10° N 04:45:48 17° N 04:45:48 17° N visible
13 Dec 5.5 04:07:41 10° NNE 04:08:16 13° NNE 04:08:16 13° NNE visible
13 Dec 4.9 05:47:31 10° N 05:48:27 14° NNW 05:48:27 14° NNW visible
14 Dec 5.0 05:09:55 10° N 05:10:55 16° N 05:10:55 16° N visible
15 Dec 5.3 04:32:41 10° NNE 04:33:23 14° NNE 04:33:23 14° NNE visible
15 Dec 5.0 06:13:22 10° NNW 06:13:34 11° NNW 06:13:34 11° NNW visible
16 Dec 5.7 03:55:48 10° NNE 03:55:53 10° NNE 03:55:53 10° NNE visible
16 Dec 5.0 05:35:18 10° N 05:36:03 13° NNW 05:36:03 13° NNW visible
16 Dec 6.0 16:56:27 10° WSW 16:58:42 13° W 17:00:57 10° WNW visible
17 Dec 5.2 04:57:50 10° N 04:58:33 14° N 04:58:33 14° N visible
18 Dec 5.5 04:20:43 10° NNE 04:21:02 12° NNE 04:21:02 12° NNE visible
18 Dec 5.1 06:00:57 10° NNW 06:01:13 11° NNW 06:01:13 11° NNW visible
